Location: Aressy
(43.2833°N, 0.3167°W)
Time: 17:19:40
(UTC+00:00)

Cosmos 2082 Rocket - Pass Details

Date: 28 January 2021
Orbit: 832 x 854 km, 71.0° (Epoch: 03 March)

Event Time Altitude Azimuth Distance (km) Brightness Sun altitude
Rises 17:37:12 0° 344° (NNW) 3,434 5.3 -5.8°
Reaches altitude 10° 17:40:17 10° 360° (N) 2,493 4.5 -6.3°
Maximum altitude 17:44:36 22° 49° (NE) 1,807 3.4 -7.0°
Drops below altitude 10° 17:48:53 10° 98° (E) 2,476 4.1 -7.8°
Enters shadow 17:51:19 - 112° (ESE) 3,207 4.7 -8.2°
